Regional Weather Roundup
Issued by NWS

Home | Current Version | Previous Version | Graphics & Text | Print | Product List | Glossary On
Versions: 1 2 3 4 5 6 7 8 9 10 11 12 13 14 15 16 17 18 19 20 21 22 23 24 25 26 27 28 29 30 31 32 33 34 35 36 37 38 39 40 41 42 43 44 45 46 47 48 49 50
000
ASUS44 KMEG 190310
RWRTN
TENNESSEE HOURLY STATE WEATHER ROUNDUP
NATIONAL WEATHER SERVICE MEMPHIS TN
1000 PM CDT SAT APR 18 2015

TNZ002-004-019-021-049-052-054-088>092-190400-
WEST TENNESSEE

CITY           SKY/WX    TMP DP  RH WIND       PRES   REMARKS
MEMPHIS INTL   CLOUDY    68  62  81 E5        29.84F
NWS MEMPHIS      N/A     67 N/A N/A MISG        N/A
JACKSON        CLOUDY    68  62  81 SW6       29.86S
DYERSBURG      CLOUDY    70  54  56 CALM      29.85S
UNION CITY     MOCLDY    70  32  24 CALM      29.83F
PARIS          CLOUDY    70  57  64 SE9       29.86S
LEXINGTON      CLOUDY    70  61  73 S6        29.86S
SAVANNAH       CLOUDY    66  32  28 CALM      29.88S
$$

TNZ008-025-027-028-033-062-065-066-190400-
NORTH MIDDLE TENNESSEE

CITY           SKY/WX    TMP DP  RH WIND       PRES   REMARKS
NASHVILLE      MOCLDY    65  64  97 S5        29.89R
CLARKSVILLE    CLOUDY    71  60  68 E3        29.87S
SMYRNA         MOCLDY    65  64  96 CALM      29.90S
COOKEVILLE     CLEAR     70  61  73 SE5       29.91S
CROSSVILLE     CLOUDY    65  58  78 VRB6      29.96F
$$

TNZ061-075-076-078-094-096-097-190400-
SOUTH MIDDLE TENNESSEE

CITY           SKY/WX    TMP DP  RH WIND       PRES   REMARKS
FAYETTEVILLE   PTCLDY    64  61  88 S3        29.91R
TULLAHOMA      PTCLDY    66  59  77 CALM      29.93R
WINCHESTER     PTCLDY    66  61  82 S7        29.93R
MCMINNVILLE    CLOUDY    70  63  78 VRB5      29.91S
COLUMBIA       CLEAR     68  32  26 SE6       29.87S
SHELBYVILLE    PTCLDY    64  64 100 CALM      29.91S
$$

TNZ017-018-042-046-047-190400-
NORTHEAST TENNESSEE

CITY           SKY/WX    TMP DP  RH WIND       PRES   REMARKS
TRI CITIES     MOCLDY    65  59  81 SW3       29.98F
ELIZABETHTON   CLOUDY    61  57  88 E3        29.99F
$$

TNZ012-013-036-069-073-074-190400-
CENTRAL EAST TENNESSEE

CITY           SKY/WX    TMP DP  RH WIND       PRES   REMARKS
KNOXVILLE      CLOUDY    65  63  93 SW3       29.94F
OAK RIDGE      CLOUDY    69  63  81 SW3       29.97R
GATLINBURG     CLOUDY    64  63  94 CALM      29.95S
MORRISTOWN     CLOUDY    64  63  94 CALM      29.96F
$$

TNZ083-085-099-190400-
SOUTHEAST TENNESSEE

CITY           SKY/WX    TMP DP  RH WIND       PRES   REMARKS
CHATTANOOGA    CLOUDY    68  63  84 NE5       29.93F
$$

SKY/WX REPORTED AS FAIR MEANS FEW OR NO CLOUDS BELOW
12 THOUSAND FEET.




USA.gov is the U.S. government's official web portal to all federal, state and local government web resources and services.